Home > Weather > Iquique > Past weeks

Flag for Chile Past Weather in Iquique, Chile — Yesterday and Last 2 Weeks

Now
63 °F

Overcast.


Feels Like: 63 °F
Forecast: 60 / 67 °F
Wind: 5 mph from Southwest

Location: Iquique / Diego Arac

Current Time: Jul 29, 2016 at 3:52:04 AM

Latest Report: Jul 29, 2016 at 3:00 AM


Visibility: N/A

Pressure: 29.98 "Hg

Humidity: 64%

Dew Point: 50 °F

Location of IquiqueLocation

Past Weather in Iquique — Graph

°F

Iquique Temperature Yesterday

Maximum temperature yesterday: 64 °F (at 11:00 AM)
Minimum temperature yesterday: 59 °F (at 12:00 AM)
Average temperature yesterday: 62 °F

High & Low Weather Summary for the Past Weeks

 TemperatureHumidityPressure
High66 °F (Jul 25, 2:00 PM)100% (Jul 15, 1:00 PM)30.15 "Hg (Jul 15, 1:00 PM)
Low54 °F (Jul 16, 4:00 AM)52% (Jul 14, 12:00 PM)29.89 "Hg (Jul 23, 5:00 PM)
Average61 °F69%30.03 "Hg
* Reported Jul 14 3:00 AM — Jul 29 3:00 AM, Iquique, Weather by CustomWeather, © 2016

Note: Actual official high and low records may vary slightly from our data, if they occured in-between our weather recording intervals... More about our weather records

Advertising

Iquique Weather History for the Previous 24 Hours

Scroll right to see more
 ConditionsComfort  
Time TempWeatherWind HumidityBarometerVisibility
3:00 AM
Fri, Jul 29
63 °FOvercast.5 mph64%29.98 "HgN/A
2:00 AM63 °FOvercast.3 mph64%30.01 "HgN/A
1:00 AM63 °FOvercast.3 mph64%30.01 "HgN/A
12:00 AM63 °FOvercast.2 mph64%30.04 "HgN/A
11:00 PM
Thu, Jul 28
63 °FOvercast.3 mph64%30.04 "HgN/A
10:00 PM63 °FOvercast.5 mph64%30.04 "HgN/A
9:00 PM63 °FOvercast.7 mph68%30.01 "HgN/A
8:00 PM63 °FOvercast.6 mph64%29.98 "HgN/A
7:00 PM63 °FOvercast.8 mph73%29.98 "HgN/A
6:00 PM63 °FOvercast.7 mph68%29.95 "HgN/A
5:00 PM63 °FOvercast.8 mph68%29.95 "HgN/A
4:00 PM63 °FPartly sunny.9 mph68%29.95 "HgN/A
3:00 PM64 °FPartly sunny.10 mph64%29.95 "HgN/A
2:00 PM64 °FScattered clouds.10 mph64%29.98 "HgN/A
1:00 PM64 °FPassing clouds.10 mph60%29.98 "HgN/A
12:00 PM64 °FPassing clouds.9 mph60%30.01 "HgN/A
11:00 AM64 °FPassing clouds.8 mph60%30.01 "HgN/A
10:00 AM63 °FPassing clouds.3 mph64%30.01 "HgN/A
9:00 AM63 °FSunny.5 mph64%30.01 "Hg10 mi
8:00 AM59 °FPartly sunny.9 mph68%29.98 "HgN/A
7:00 AM61 °FOvercast.6 mph68%29.98 "HgN/A
6:00 AM61 °FOvercast.5 mph68%29.98 "HgN/A
5:00 AM61 °FOvercast.2 mph68%29.98 "HgN/A
4:00 AM61 °FOvercast.10 mph68%29.98 "HgN/A
3:00 AM61 °FOvercast.6 mph68%29.98 "HgN/A
Weather by CustomWeather, © 2016

See weather overviewHow to use our weather pages